976  
ASUS45 KTFX 181010  
RWRMT  
MONTANA REGIONAL WEATHER ROUNDUP  
NATIONAL WEATHER SERVICE GREAT FALLS MT  
400 AM MDT WED JUL 18 2018  
 
NOTE: "FAIR" INDICATES FEW OR NO CLOUDS BELOW 12000 FEET WITH NO  
SIGNIFICANT WEATHER AND/OR S TO VISIBILITY
.  
 
MTZ001>007-043-181100-  
WEST OF THE DIVIDE  
 
CITY SKY/WX TMP DP RH WIND PRES REMARKS
 
KALISPELL FAIR 51 48 89 CALM 29.98S  
MISSOULA FAIR 56 47 71 CALM 30.07R  
BUTTE FAIR 49 43 80 S3 30.22S  
MULLAN PASS FAIR 64 26 23 VRB6 30.18F  
ANACONDA N/A 54 41 62 S9 30.17S  
DEER LODGE N/A 48 45 87 CALM 30.17F  
PLAINS N/A 54 47 77 CALM 30.00S  
RONAN N/A 54 50 87 CALM 30.01S  

 
 
MTZ008-052>055-181100-  
SOUTHWEST MONTANA  
 
CITY SKY/WX TMP DP RH WIND PRES REMARKS
 
BOZEMAN FAIR 53 48 83 SE9 30.15S  
DILLON FAIR 52 45 77 S12 30.20S  
ENNIS CLEAR 48 43 81 NE5 30.25F  
W YELLOWSTONE FAIR 37 37 100 CALM 30.31S  
TWIN BRIDGES N/A 53 42 66 CALM 30.16  

 
 
MTZ009-010-012-014-046-048-049-054-181100-  
EAST SLOPES AND CENTRAL MONTANA  
 
CITY SKY/WX TMP DP RH WIND PRES REMARKS
 
CUT BANK FAIR 65 43 44 W7 29.98S  
GREAT FALLS FAIR 68 51 54 SE9 30.03R  
MALMSTROM AFB MOCLDY 67 53 61 S18 30.01F  
HELENA FAIR 58 48 69 E3 30.09F  
AUGUSTA FAIR 61 44 53 CALM 30.05S  
BOWMANS CRNR FAIR 61 48 62 S13 30.05S  
CHOTEAU N/A 63 46 55 SW6 30.03S  
FAIRFIELD FAIR 62 45 53 W3 30.01F  
RAYNESFORD MOCLDY 63 53 69 SE9 30.07S  
ULM FAIR 63 48 59 SE6 30.02S  
WHITE SULPHUR N/A 52 46 82 NE5 30.15R  

 
 
MTZ011-013-016-021-045-047-050-051-181100-  
NORTH CENTRAL MONTANA  
 
CITY SKY/WX TMP DP RH WIND PRES REMARKS
 
HAVRE FAIR 71 53 52 SW16 29.93S  
LEWISTOWN FAIR 63 55 75 N6 30.04F  
CHINOOK N/A 68 54 60 CALM 29.92S  
DENTON FAIR 61 56 83 W14 29.98F  
GEYSER FAIR 66 52 60 W8 30.05F  
GRASS RANGE FAIR 65 52 62 W13 29.98S  
JUDITH GAP FAIR 60 50 69 W9 30.09F  
ROY MOCLDY 69 50 50 W14 29.97F  
STANFORD FAIR 61 51 70 W14 30.08F  
WINIFRED MOCLDY 67 50 53 SW10 29.99F  

 
 
MTZ017>020-022>027-061-062-181100-  
NORTHEAST MONTANA  
 
CITY SKY/WX TMP DP RH WIND PRES REMARKS
 
GLASGOW FAIR 66 58 75 E8 29.93F  
GLENDIVE FAIR 66 58 75 CALM 29.98F  
JORDAN N/A 65 52 62 CALM 29.98F  
MALTA CLEAR 66 54 63 CALM 29.90S  
SIDNEY FAIR 65 59 81 CALM 29.96F  
WOLF POINT FAIR 63 54 72 CALM 29.95S  
POPLAR N/A 64 55 72 E5 29.96S  
SCOBEY N/A 61 48 62 CALM 29.96S  

 
 
MTZ028>42-056>058-181100-  
SOUTHCENTRAL AND SOUTHEAST MONTANA  
 
CITY SKY/WX TMP DP RH WIND PRES REMARKS
 
BAKER MOCLDY 64 61 90 N5 30.01F  
BILLINGS FAIR 62 59 90 SW12 30.03S  
LIVINGSTON FAIR 52 50 93 VRB3 30.14R  
MILES CITY FAIR 65 60 84 NW7 29.98F  
BIG TIMBER CLEAR 59 50 72 W8 30.12F  
EKALAKA N/A 62 54 75 SE1 30.01F  
FORSYTH N/A 66 64 94 CALM 29.99S  
ROUNDUP N/A 62 55 77 S5 29.94S  

 
 
REGIONAL REPORTS...DAKOTAS  
 
CITY SKY/WX TMP DP RH WIND PRES REMARKS
 
WILLISTON FAIR 65 61 87 CALM 29.97S  
MINOT FAIR 57 54 89 CALM 29.98F  
DICKINSON FAIR 63 60 90 CALM 29.97F  
BEACH FAIR 61 61 100 CALM 30.02F  
CROSBY FAIR 59 59 100 S7 29.98S  
TIOGA FAIR 57 57 100 CALM 30.01S  
WATFORD CITY FAIR 63 61 94 W6 29.97S  
BISMARCK FAIR 65 63 93 E7 29.99F  
GRAND FORKS FAIR 54 54 100 S3 30.05S  
FARGO FAIR 63 56 78 SE6 30.05F  
BUFFALO SD N/A 68 61 78 N5 29.94F  
RAPID CITY FAIR 59 56 89 SE9 30.01S  

 
 
REGIONAL REPORTS...WYOMING/IDAHO/WASHINGTON  
 
CITY SKY/WX TMP DP RH WIND PRES REMARKS
 
GILLETTE FAIR 59 56 89 SW3 30.07F  
SHERIDAN FAIR 55 53 93 S7 30.06F  
BUFFALO WY FAIR 57 49 74 W8 30.12F  
CODY FAIR 58 46 64 NE3 30.17R  
YELLOWSTONE LA N/A 39 38 96 CALM 30.40S  
IDAHO FALLS FAIR 53 51 93 N7 30.19R  
SALMON FAIR 55 49 80 CALM 30.16S  
BOISE FAIR 75 41 29 SE13 30.00R  
SPOKANE FAIR 70 41 34 S13 29.94R  

 
 
REGIONAL REPORTS...ALBERTA  
 
CITY SKY/WX TMP DP RH WIND PRES REMARKS
 
CALGARY PTCLDY 64 54 68 CALM 29.91F  
CARDSTON N/A 64 43 45 SW10 N/A  
FORT MCMURRAY MOCLDY 55 48 76 VRB2 29.92R  
HIGH LEVEL MOCLDY 54 46 76 CALM 29.86S  
LETHBRIDGE PTCLDY 64 45 48 SW6 29.89S  
LLOYDMINSTER MOCLDY 64 59 82 E3 29.86F  
MEDICINE HAT PTCLDY 64 54 68 S5 29.85S  
ONEFOUR N/A 72 52 49 SW16G22 N/A  
PEACE RIVER MOCLDY 59 55 88 NW14 29.92R  
PINCHER CREEK CLEAR 63 41 45 SW13 29.96F  
RAYMOND N/A 64 45 48 SW8 N/A  

 
 
REGIONAL REPORTS...SASKATCHEWAN  
 
CITY SKY/WX TMP DP RH WIND PRES REMARKS
 
CORONACH N/A 64 55 72 SE5 N/A  
CYPRESS HILLS N/A 64 46 52 SW7 N/A  
ESTEVAN MOCLDY 57 57 100 E8 29.98S  
MOOSE JAW N/A 64 55 72 SE6 N/A  
PRINCE ALBERT PTCLDY 59 55 88 E3 29.87F  
REGINA MOCLDY 64 59 82 SE13 29.95F  
ROCKGLEN N/A 66 54 63 SW10 N/A  
SASKATOON MOCLDY 66 59 77 SE7 29.85F  
SWIFT CURRENT CLEAR 72 52 49 S15 29.88S  
VAL MARIE N/A 59 48 67 E1 N/A  

 
 
 
CLICK HERE TO GO TO PREVIOUS BULLETINS.

The Nexlab MT Page Main Text Page